Time,TemperatureF,DewpointF,PressureIn,WindDirection,WindDirectionDegrees,WindSpeedMPH,WindSpeedGustMPH,Humidity,HourlyPrecipIn,Conditions,Clouds,dailyrainin,SolarRadiationWatts/m^2,SoftwareType,DateUTC
2013-01-21 00:13:00,15.0,13.0,30.12,WNW,301,7.0,12.0,90,0.00,,,0.00,0,weatherlink.com 1.10,2013-01-21 05:13:00,
2013-01-21 00:28:00,14.9,12.0,30.12,WNW,296,10.0,12.0,89,0.00,,,0.00,0,weatherlink.com 1.10,2013-01-21 05:28:00,
2013-01-21 00:43:00,15.3,12.0,30.11,WNW,286,8.0,15.0,88,0.00,,,0.00,0,weatherlink.com 1.10,2013-01-21 05:43:00,
2013-01-21 00:58:00,15.1,12.0,30.10,West,279,8.0,12.0,87,0.00,,,0.00,0,weatherlink.com 1.10,2013-01-21 05:58:00,
2013-01-21 01:13:00,15.0,11.0,30.10,WNW,282,10.0,13.0,85,0.00,,,0.00,0,weatherlink.com 1.10,2013-01-21 06:13:00,
2013-01-21 01:28:00,15.0,12.0,30.10,West,279,7.0,12.0,86,0.00,,,0.00,0,weatherlink.com 1.10,2013-01-21 06:28:00,
2013-01-21 01:43:00,14.9,10.0,30.09,West,280,7.0,15.0,82,0.00,,,0.00,0,weatherlink.com 1.10,2013-01-21 06:43:00,
2013-01-21 01:58:00,14.5,9.0,30.09,West,273,9.0,15.0,78,0.00,,,0.00,0,weatherlink.com 1.10,2013-01-21 06:58:00,
2013-01-21 02:13:00,14.6,9.0,30.09,West,275,10.0,16.0,77,0.00,,,0.00,0,weatherlink.com 1.10,2013-01-21 07:13:00,
2013-01-21 02:28:00,14.2,10.0,30.09,WNW,297,11.0,17.0,84,0.00,,,0.00,0,weatherlink.com 1.10,2013-01-21 07:28:00,
2013-01-21 02:43:00,14.3,11.0,30.08,West,281,11.0,18.0,86,0.00,,,0.00,0,weatherlink.com 1.10,2013-01-21 07:43:00,
2013-01-21 02:58:00,14.0,10.0,30.08,West,275,10.0,17.0,83,0.00,,,0.00,0,weatherlink.com 1.10,2013-01-21 07:58:00,
2013-01-21 03:13:00,14.1,10.0,30.08,West,268,14.0,20.0,84,0.00,,,0.00,0,weatherlink.com 1.10,2013-01-21 08:13:00,
2013-01-21 03:28:00,13.8,10.0,30.08,West,279,11.0,17.0,85,0.00,,,0.00,0,weatherlink.com 1.10,2013-01-21 08:28:00,
2013-01-21 03:43:00,13.2,9.0,30.07,West,281,13.0,17.0,84,0.00,,,0.00,0,weatherlink.com 1.10,2013-01-21 08:43:00,
2013-01-21 03:58:00,12.8,9.0,30.07,West,275,11.0,17.0,83,0.00,,,0.00,0,weatherlink.com 1.10,2013-01-21 08:58:00,
2013-01-21 04:13:00,12.9,8.0,30.06,West,278,13.0,17.0,82,0.00,,,0.00,0,weatherlink.com 1.10,2013-01-21 09:13:00,
2013-01-21 04:28:00,12.6,8.0,30.06,WNW,296,9.0,15.0,83,0.00,,,0.00,0,weatherlink.com 1.10,2013-01-21 09:28:00,
2013-01-21 04:43:00,12.5,7.0,30.05,West,275,13.0,17.0,80,0.00,,,0.00,0,weatherlink.com 1.10,2013-01-21 09:43:00,
2013-01-21 04:58:00,12.8,9.0,30.05,WNW,286,7.0,20.0,84,0.00,,,0.00,0,weatherlink.com 1.10,2013-01-21 09:58:00,
2013-01-21 05:14:00,12.2,8.0,30.05,WNW,286,11.0,16.0,83,0.00,,,0.00,0,weatherlink.com 1.10,2013-01-21 10:14:00,
2013-01-21 05:29:00,12.2,8.0,30.04,WNW,287,10.0,17.0,82,0.00,,,0.00,0,weatherlink.com 1.10,2013-01-21 10:29:00,
2013-01-21 05:44:00,11.7,6.0,30.04,West,278,9.0,16.0,79,0.00,,,0.00,0,weatherlink.com 1.10,2013-01-21 10:44:00,
2013-01-21 05:59:00,12.2,7.0,30.04,West,274,14.0,17.0,81,0.00,,,0.00,0,weatherlink.com 1.10,2013-01-21 10:59:00,
2013-01-21 06:14:00,12.2,8.0,30.04,WNW,283,11.0,17.0,82,0.00,,,0.00,0,weatherlink.com 1.10,2013-01-21 11:14:00,
2013-01-21 06:29:00,11.8,8.0,30.03,West,279,11.0,16.0,84,0.00,,,0.00,0,weatherlink.com 1.10,2013-01-21 11:29:00,
2013-01-21 06:44:00,12.2,7.0,30.03,West,267,10.0,16.0,80,0.00,,,0.00,0,weatherlink.com 1.10,2013-01-21 11:44:00,
2013-01-21 06:59:00,12.3,9.0,30.03,WNW,282,9.0,16.0,85,0.00,,,0.00,0,weatherlink.com 1.10,2013-01-21 11:59:00,
2013-01-21 07:14:00,11.5,9.0,30.03,West,278,9.0,18.0,88,0.00,,,0.00,0,weatherlink.com 1.10,2013-01-21 12:14:00,
2013-01-21 07:29:00,11.3,9.0,30.03,WNW,301,11.0,16.0,88,0.00,,,0.00,0,weatherlink.com 1.10,2013-01-21 12:29:00,
2013-01-21 07:44:00,10.7,8.0,30.03,WNW,296,12.0,16.0,89,0.00,,,0.00,0,weatherlink.com 1.10,2013-01-21 12:44:00,
2013-01-21 07:59:00,10.9,8.0,30.02,WNW,291,7.0,16.0,88,0.00,,,0.00,0,weatherlink.com 1.10,2013-01-21 12:59:00,
2013-01-21 08:14:00,11.4,9.0,30.02,WNW,296,13.0,14.0,88,0.00,,,0.00,0,weatherlink.com 1.10,2013-01-21 13:14:00,
2013-01-21 08:29:00,11.1,8.0,30.02,WNW,291,11.0,14.0,88,0.00,,,0.00,0,weatherlink.com 1.10,2013-01-21 13:29:00,
2013-01-21 08:45:00,11.2,8.0,30.02,WNW,296,8.0,16.0,87,0.00,,,0.00,5,weatherlink.com 1.10,2013-01-21 13:45:00,
2013-01-21 09:00:00,11.2,8.0,30.02,WNW,301,11.0,16.0,87,0.00,,,0.00,14,weatherlink.com 1.10,2013-01-21 14:00:00,
2013-01-21 09:15:00,10.8,8.0,30.02,WNW,294,12.0,16.0,87,0.00,,,0.00,25,weatherlink.com 1.10,2013-01-21 14:15:00,
2013-01-21 09:30:00,11.3,9.0,30.02,WNW,303,13.0,15.0,88,0.00,,,0.00,53,weatherlink.com 1.10,2013-01-21 14:30:00,
2013-01-21 09:45:00,10.4,8.0,30.03,WNW,295,10.0,17.0,88,0.00,,,0.00,30,weatherlink.com 1.10,2013-01-21 14:45:00,
2013-01-21 10:00:00,11.0,8.0,30.02,WNW,297,13.0,17.0,88,0.00,,,0.00,44,weatherlink.com 1.10,2013-01-21 15:00:00,
2013-01-21 10:15:00,11.0,8.0,30.03,WNW,290,10.0,20.0,88,0.00,,,0.00,35,weatherlink.com 1.10,2013-01-21 15:15:00,
2013-01-21 10:30:00,10.6,8.0,30.03,WNW,302,14.0,17.0,88,0.00,,,0.00,42,weatherlink.com 1.10,2013-01-21 15:30:00,
2013-01-21 10:45:00,10.4,8.0,30.03,WNW,298,13.0,19.0,88,0.00,,,0.00,51,weatherlink.com 1.10,2013-01-21 15:45:00,
2013-01-21 11:00:00,9.9,7.0,30.03,WNW,299,14.0,20.0,88,0.00,,,0.00,54,weatherlink.com 1.10,2013-01-21 16:00:00,
2013-01-21 11:19:00,-999.0,-99.9,0.00,North,-999,-999.0,-999.0,-999,0.00,,,0.00,,weatherlink.com 1.10,2013-01-21 16:19:00,
2013-01-21 11:33:00,9.9,7.0,30.04,WNW,303,13.0,21.0,87,0.00,,,0.00,88,weatherlink.com 1.10,2013-01-21 16:33:00,
2013-01-21 11:48:00,9.9,7.0,30.04,WNW,290,14.0,21.0,88,0.00,,,0.00,107,weatherlink.com 1.10,2013-01-21 16:48:00,
2013-01-21 12:04:00,9.9,7.0,30.03,WNW,294,13.0,19.0,89,0.00,,,0.00,63,weatherlink.com 1.10,2013-01-21 17:04:00,
2013-01-21 12:19:00,8.9,6.0,30.03,WNW,301,10.0,19.0,87,0.00,,,0.00,93,weatherlink.com 1.10,2013-01-21 17:19:00,
2013-01-21 12:34:00,9.4,7.0,30.03,NW,312,15.0,18.0,88,0.00,,,0.00,54,weatherlink.com 1.10,2013-01-21 17:34:00,
2013-01-21 12:49:00,9.5,7.0,30.03,West,281,10.0,19.0,88,0.00,,,0.00,90,weatherlink.com 1.10,2013-01-21 17:49:00,
2013-01-21 13:04:00,9.7,7.0,30.03,WNW,286,13.0,19.0,89,0.00,,,0.00,58,weatherlink.com 1.10,2013-01-21 18:04:00,
2013-01-21 13:19:00,9.0,6.0,30.03,WNW,299,16.0,19.0,88,0.00,,,0.00,84,weatherlink.com 1.10,2013-01-21 18:19:00,
2013-01-21 13:34:00,8.9,6.0,30.02,NW,304,14.0,19.0,87,0.00,,,0.00,76,weatherlink.com 1.10,2013-01-21 18:34:00,
2013-01-21 13:49:00,9.0,6.0,30.03,WNW,300,14.0,20.0,88,0.00,,,0.00,69,weatherlink.com 1.10,2013-01-21 18:49:00,
2013-01-21 14:04:00,9.2,7.0,30.03,WNW,290,11.0,19.0,89,0.00,,,0.00,56,weatherlink.com 1.10,2013-01-21 19:04:00,
2013-01-21 14:19:00,8.5,6.0,30.03,WNW,302,17.0,20.0,88,0.00,,,0.00,44,weatherlink.com 1.10,2013-01-21 19:19:00,
2013-01-21 14:34:00,8.4,5.0,30.04,NW,309,13.0,20.0,87,0.00,,,0.00,46,weatherlink.com 1.10,2013-01-21 19:34:00,
2013-01-21 14:49:00,8.3,5.0,30.04,NW,304,16.0,19.0,87,0.00,,,0.00,37,weatherlink.com 1.10,2013-01-21 19:49:00,
2013-01-21 15:04:00,8.6,6.0,30.05,WNW,298,13.0,20.0,88,0.00,,,0.00,42,weatherlink.com 1.10,2013-01-21 20:04:00,
2013-01-21 15:19:00,8.3,6.0,30.04,WNW,286,12.0,20.0,88,0.00,,,0.00,46,weatherlink.com 1.10,2013-01-21 20:19:00,
2013-01-21 15:35:00,8.5,6.0,30.05,WNW,291,14.0,20.0,88,0.00,,,0.00,39,weatherlink.com 1.10,2013-01-21 20:35:00,
2013-01-21 15:50:00,8.3,6.0,30.05,WNW,302,16.0,17.0,88,0.00,,,0.00,33,weatherlink.com 1.10,2013-01-21 20:50:00,
2013-01-21 16:05:00,8.5,5.0,30.06,WNW,294,13.0,16.0,87,0.00,,,0.00,33,weatherlink.com 1.10,2013-01-21 21:05:00,
2013-01-21 16:20:00,8.2,5.0,30.06,WNW,286,11.0,16.0,87,0.00,,,0.00,23,weatherlink.com 1.10,2013-01-21 21:20:00,
2013-01-21 16:35:00,8.2,5.0,30.06,WNW,295,12.0,18.0,88,0.00,,,0.00,18,weatherlink.com 1.10,2013-01-21 21:35:00,
2013-01-21 16:50:00,8.0,5.0,30.07,WNW,300,19.0,19.0,88,0.00,,,0.00,11,weatherlink.com 1.10,2013-01-21 21:50:00,
2013-01-21 17:05:00,7.5,4.0,30.07,WNW,301,11.0,20.0,87,0.00,,,0.00,7,weatherlink.com 1.10,2013-01-21 22:05:00,
2013-01-21 17:20:00,8.1,5.0,30.08,WNW,282,19.0,20.0,88,0.00,,,0.00,0,weatherlink.com 1.10,2013-01-21 22:20:00,
2013-01-21 17:35:00,6.9,4.0,30.08,WNW,299,12.0,20.0,87,0.00,,,0.00,0,weatherlink.com 1.10,2013-01-21 22:35:00,
2013-01-21 17:50:00,7.3,4.0,30.08,WNW,300,19.0,19.0,87,0.00,,,0.00,0,weatherlink.com 1.10,2013-01-21 22:50:00,
2013-01-21 18:05:00,7.1,4.0,30.09,WNW,299,11.0,22.0,87,0.00,,,0.00,0,weatherlink.com 1.10,2013-01-21 23:05:00,
2013-01-21 18:20:00,7.2,4.0,30.09,WNW,298,14.0,17.0,88,0.00,,,0.00,0,weatherlink.com 1.10,2013-01-21 23:20:00,
2013-01-21 18:35:00,6.5,3.0,30.10,WNW,301,14.0,18.0,86,0.00,,,0.00,0,weatherlink.com 1.10,2013-01-21 23:35:00,
2013-01-21 18:51:00,6.8,4.0,30.11,WNW,292,16.0,20.0,87,0.00,,,0.00,0,weatherlink.com 1.10,2013-01-21 23:51:00,
2013-01-21 19:06:00,6.6,4.0,30.11,WNW,299,14.0,19.0,87,0.00,,,0.00,0,weatherlink.com 1.10,2013-01-22 00:06:00,
2013-01-21 19:21:00,6.4,3.0,30.11,NW,305,11.0,19.0,87,0.00,,,0.00,0,weatherlink.com 1.10,2013-01-22 00:21:00,
2013-01-21 19:36:00,5.8,2.0,30.12,WNW,296,15.0,17.0,85,0.00,,,0.00,0,weatherlink.com 1.10,2013-01-22 00:36:00,
2013-01-21 19:51:00,5.4,2.0,30.12,NW,304,12.0,19.0,86,0.00,,,0.00,0,weatherlink.com 1.10,2013-01-22 00:51:00,
2013-01-21 20:06:00,5.4,2.0,30.13,WNW,301,12.0,20.0,87,0.00,,,0.00,0,weatherlink.com 1.10,2013-01-22 01:06:00,
2013-01-21 20:21:00,5.1,2.0,30.13,WNW,297,18.0,22.0,87,0.00,,,0.00,0,weatherlink.com 1.10,2013-01-22 01:21:00,
2013-01-21 20:36:00,4.5,1.0,30.14,NW,308,13.0,21.0,86,0.00,,,0.00,0,weatherlink.com 1.10,2013-01-22 01:36:00,
2013-01-21 20:51:00,3.8,1.0,30.14,NW,306,16.0,23.0,86,0.00,,,0.00,0,weatherlink.com 1.10,2013-01-22 01:51:00,
2013-01-21 21:06:00,3.7,1.0,30.15,WNW,301,16.0,19.0,86,0.00,,,0.00,0,weatherlink.com 1.10,2013-01-22 02:06:00,
2013-01-21 21:21:00,3.3,0.0,30.16,WNW,301,12.0,18.0,86,0.00,,,0.00,0,weatherlink.com 1.10,2013-01-22 02:21:00,
2013-01-21 21:36:00,3.3,0.0,30.16,WNW,294,16.0,17.0,86,0.00,,,0.00,0,weatherlink.com 1.10,2013-01-22 02:36:00,
2013-01-21 21:51:00,3.2,0.0,30.16,NW,306,9.0,19.0,85,0.00,,,0.00,0,weatherlink.com 1.10,2013-01-22 02:51:00,
2013-01-21 22:06:00,3.9,1.0,30.16,WNW,302,10.0,18.0,88,0.00,,,0.00,0,weatherlink.com 1.10,2013-01-22 03:06:00,
2013-01-21 22:22:00,3.5,0.0,30.16,WNW,284,13.0,19.0,86,0.00,,,0.00,0,weatherlink.com 1.10,2013-01-22 03:22:00,
2013-01-21 22:37:00,3.2,0.0,30.16,WNW,298,14.0,21.0,86,0.00,,,0.00,0,weatherlink.com 1.10,2013-01-22 03:37:00,
2013-01-21 22:52:00,3.2,0.0,30.16,NW,304,12.0,18.0,85,0.00,,,0.00,0,weatherlink.com 1.10,2013-01-22 03:52:00,
2013-01-21 23:07:00,3.3,0.0,30.16,WNW,291,9.0,17.0,85,0.00,,,0.00,0,weatherlink.com 1.10,2013-01-22 04:07:00,
2013-01-21 23:22:00,3.5,0.0,30.17,NW,308,12.0,18.0,86,0.00,,,0.00,0,weatherlink.com 1.10,2013-01-22 04:22:00,
2013-01-21 23:37:00,3.6,0.0,30.17,WNW,300,12.0,24.0,84,0.00,,,0.00,0,weatherlink.com 1.10,2013-01-22 04:37:00,
2013-01-21 23:52:00,3.6,0.0,30.17,WNW,296,8.0,18.0,86,0.00,,,0.00,0,weatherlink.com 1.10,2013-01-22 04:52:00,